• In Belarus
  • List of Countries
  • For 7 days
  • Water Temperature
  • Satellite Maps
  • Weather Map
  • Weather Widgets
  • user-avatar
    Login

    Hourly Weather Varnetresk

    Today, 23 November, Thursday

    Time Temperature Precipitation Wind Pressure Humidity
    00:00 -14°C° 0.2 mm 13 mps 675 mmHg 83%
    01:00 -13°C° 0.2 mm 14 mps 674 mmHg 83%
    02:00 -13°C° 0.4 mm 15 mps 673 mmHg 83%
    03:00 -13°C° 0.4 mm 15 mps 672 mmHg 83%
    04:00 -13°C° 0.4 mm 16 mps 671 mmHg 83%
    05:00 -13°C° 0.4 mm 16 mps 671 mmHg 83%
    06:00 -13°C° 0.4 mm 16 mps 670 mmHg 83%
    07:00 -12°C° 0.4 mm 16 mps 669 mmHg 83%
    08:00 -12°C° 0.4 mm 16 mps 669 mmHg 83%
    09:00 -12°C° 0.4 mm 16 mps 668 mmHg 83%
    10:00 -12°C° 0.4 mm 16 mps 667 mmHg 83%
    11:00 -12°C° 0.5 mm 15 mps 667 mmHg 84%
    12:00 -11°C° 0.5 mm 14 mps 666 mmHg 84%
    13:00 -11°C° 0.5 mm 13 mps 665 mmHg 85%
    14:00 -11°C° 0.5 mm 12 mps 665 mmHg 86%
    15:00 -10°C° 0.5 mm 10 mps 665 mmHg 86%
    16:00 -10°C° 0.5 mm 8 mps 664 mmHg 87%
    17:00 -8°C° 0.5 mm 7 mps 664 mmHg 87%
    18:00 -8°C° 0.5 mm 7 mps 664 mmHg 88%
    19:00 -8°C° 0.5 mm 6 mps 664 mmHg 88%
    20:00 -8°C° 0.7 mm 6 mps 664 mmHg 89%
    21:00 -7°C° 0.7 mm 5 mps 664 mmHg 90%
    22:00 -6°C° 0.7 mm 5 mps 664 mmHg 91%
    23:00 -6°C° 0.5 mm 5 mps 664 mmHg 92%

    Tomorrow, 24 November, Friday

    Time Temperature Precipitation Wind Pressure Humidity
    00:00 -6°C° 0.5 mm 5 mps 664 mmHg 92%
    01:00 -4°C° 0.5 mm 4 mps 664 mmHg 92%
    02:00 -4°C° 0.3 mm 4 mps 664 mmHg 91%
    03:00 -4°C° 0.3 mm 4 mps 665 mmHg 91%
    04:00 -4°C° 0.3 mm 4 mps 665 mmHg 91%
    05:00 -4°C° 0.2 mm 3 mps 665 mmHg 91%
    06:00 -4°C° 0.2 mm 3 mps 666 mmHg 92%
    07:00 -4°C° 0.2 mm 2 mps 666 mmHg 92%
    08:00 -4°C° 0.4 mm 2 mps 667 mmHg 93%
    09:00 -4°C° 0.4 mm 2 mps 667 mmHg 94%
    10:00 -4°C° 0.4 mm 2 mps 667 mmHg 95%
    11:00 -4°C° 0.2 mm 2 mps 668 mmHg 94%
    12:00 -5°C° 0.2 mm 2 mps 668 mmHg 93%
    13:00 -6°C° 0.2 mm 3 mps 668 mmHg 93%
    14:00 -7°C° 0 mm 3 mps 668 mmHg 92%
    15:00 -8°C° 0 mm 3 mps 668 mmHg 92%
    16:00 -8°C° 0 mm 3 mps 668 mmHg 92%
    17:00 -9°C° 0 mm 3 mps 668 mmHg 91%
    18:00 -10°C° 0 mm 3 mps 668 mmHg 90%
    19:00 -12°C° 0 mm 3 mps 668 mmHg 89%
    20:00 -12°C° 0.1 mm 3 mps 669 mmHg 90%
    21:00 -12°C° 0.1 mm 3 mps 669 mmHg 91%
    22:00 -10°C° 0.1 mm 3 mps 670 mmHg 92%
    23:00 -10°C° 0.3 mm 3 mps 670 mmHg 93%

    Day after tomorrow, 25 November, Saturday

    Time Temperature Precipitation Wind Pressure Humidity
    00:00 -10°C° 0.3 mm 3 mps 670 mmHg 93%
    01:00 -10°C° 0.3 mm 3 mps 671 mmHg 93%
    02:00 -9°C° 0 mm 2 mps 671 mmHg 93%
    03:00 -10°C° 0 mm 2 mps 671 mmHg 92%
    04:00 -12°C° 0 mm 2 mps 671 mmHg 91%
    05:00 -12°C° 0 mm 2 mps 671 mmHg 91%
    06:00 -12°C° 0 mm 2 mps 671 mmHg 91%
    07:00 -12°C° 0 mm 2 mps 671 mmHg 91%
    08:00 -10°C° 0 mm 2 mps 671 mmHg 91%
    09:00 -10°C° 0 mm 2 mps 671 mmHg 91%
    10:00 -9°C° 0 mm 1 mps 671 mmHg 91%
    11:00 -9°C° 0.3 mm 1 mps 671 mmHg 91%
    12:00 -8°C° 0.3 mm 1 mps 672 mmHg 92%
    13:00 -8°C° 0.3 mm 1 mps 672 mmHg 92%
    14:00 -8°C° 0.4 mm 1 mps 672 mmHg 93%
    15:00 -8°C° 0.4 mm 1 mps 672 mmHg 94%
    16:00 -8°C° 0.4 mm 1 mps 672 mmHg 94%
    17:00 -8°C° 0.2 mm 1 mps 672 mmHg 94%
    18:00 -8°C° 0.2 mm 1 mps 672 mmHg 94%
    19:00 -8°C° 0.2 mm 1 mps 672 mmHg 94%
    20:00 -8°C° 0.1 mm 1 mps 672 mmHg 94%
    21:00 -8°C° 0.1 mm 1 mps 672 mmHg 93%
    22:00 -9°C° 0.1 mm 1 mps 672 mmHg 93%
    23:00 -9°C° 0.1 mm 1 mps 672 mmHg 92%

    26 November, Sunday

    Time Temperature Precipitation Wind Pressure Humidity
    00:00 -9°C° 0.1 mm 1 mps 672 mmHg 92%
    01:00 -9°C° 0.1 mm 1 mps 672 mmHg 91%
    02:00 -9°C° 0.1 mm 1 mps 672 mmHg 90%
    03:00 -12°C° 0.1 mm 2 mps 672 mmHg 89%
    04:00 -12°C° 0.1 mm 2 mps 672 mmHg 88%
    05:00 -13°C° 0 mm 2 mps 672 mmHg 88%
    06:00 -11°C° 0 mm 1 mps 672 mmHg 88%
    07:00 -11°C° 0 mm 1 mps 672 mmHg 88%
    08:00 -12°C° 0 mm 1 mps 672 mmHg 88%
    09:00 -12°C° 0 mm 1 mps 672 mmHg 88%
    10:00 -12°C° 0 mm 1 mps 672 mmHg 88%
    11:00 -12°C° 0 mm 1 mps 673 mmHg 88%
    12:00 -12°C° 0 mm 1 mps 673 mmHg 88%
    13:00 -12°C° 0 mm 1 mps 673 mmHg 87%
    14:00 -12°C° 0 mm 1 mps 673 mmHg 87%
    15:00 -12°C° 0 mm 1 mps 673 mmHg 87%
    16:00 -14°C° 0 mm 2 mps 673 mmHg 87%
    17:00 -14°C° 0 mm 2 mps 673 mmHg 87%
    18:00 -14°C° 0 mm 2 mps 673 mmHg 87%
    19:00 -14°C° 0 mm 2 mps 674 mmHg 87%
    20:00 -15°C° 0 mm 2 mps 674 mmHg 87%
    21:00 -15°C° 0 mm 2 mps 674 mmHg 87%
    22:00 -15°C° 0 mm 2 mps 674 mmHg 87%
    23:00 -15°C° 0 mm 2 mps 674 mmHg 87%

    27 November, Monday

    Time Temperature Precipitation Wind Pressure Humidity
    00:00 -15°C° 0 mm 2 mps 674 mmHg 87%
    01:00 -15°C° 0 mm 2 mps 674 mmHg 88%
    02:00 -15°C° 0 mm 2 mps 674 mmHg 88%
    03:00 -15°C° 0 mm 2 mps 674 mmHg 88%
    04:00 -16°C° 0 mm 2 mps 674 mmHg 89%
    05:00 -16°C° 0 mm 2 mps 675 mmHg 89%
    06:00 -16°C° 0 mm 2 mps 675 mmHg 90%
    07:00 -16°C° 0 mm 2 mps 675 mmHg 90%
    08:00 -16°C° 0 mm 2 mps 675 mmHg 90%
    09:00 -16°C° 0 mm 2 mps 675 mmHg 90%
    10:00 -16°C° 0 mm 2 mps 676 mmHg 90%
    11:00 -16°C° 0 mm 2 mps 676 mmHg 90%
    12:00 -16°C° 0 mm 2 mps 676 mmHg 90%
    13:00 -16°C° 0 mm 2 mps 676 mmHg 90%
    14:00 -16°C° 0 mm 2 mps 676 mmHg 90%
    15:00 -16°C° 0 mm 2 mps 676 mmHg 90%
    16:00 -16°C° 0 mm 2 mps 677 mmHg 89%
    17:00 -16°C° 0 mm 2 mps 677 mmHg 89%
    18:00 -14°C° 0 mm 1 mps 677 mmHg 89%
    19:00 -14°C° 0 mm 1 mps 677 mmHg 89%
    20:00 -14°C° 0 mm 1 mps 677 mmHg 89%
    21:00 -14°C° 0 mm 1 mps 678 mmHg 89%
    22:00 -14°C° 0 mm 1 mps 678 mmHg 89%
    23:00 -14°C° 0 mm 1 mps 678 mmHg 90%

    28 November, Tuesday

    Time Temperature Precipitation Wind Pressure Humidity
    00:00 -14°C° 0 mm 1 mps 678 mmHg 90%
    01:00 -14°C° 0 mm 1 mps 678 mmHg 90%
    02:00 -14°C° 0 mm 1 mps 678 mmHg 90%
    03:00 -14°C° 0 mm 1 mps 679 mmHg 90%
    04:00 -14°C° 0 mm 1 mps 679 mmHg 91%
    05:00 -14°C° 0 mm 1 mps 679 mmHg 90%
    06:00 -15°C° 0 mm 1 mps 679 mmHg 90%
    07:00 -15°C° 0 mm 1 mps 679 mmHg 90%
    08:00 -15°C° 0 mm 1 mps 680 mmHg 90%
    09:00 -15°C° 0 mm 1 mps 680 mmHg 90%
    10:00 -14°C° 0 mm 1 mps 680 mmHg 90%
    11:00 -14°C° 0 mm 1 mps 680 mmHg 90%
    12:00 -16°C° 0 mm 2 mps 681 mmHg 90%
    13:00 -16°C° 0 mm 2 mps 681 mmHg 90%
    14:00 -16°C° 0 mm 2 mps 681 mmHg 91%
    15:00 -16°C° 0 mm 2 mps 681 mmHg 91%
    16:00 -16°C° 0 mm 2 mps 681 mmHg 91%
    17:00 -16°C° 0 mm 2 mps 682 mmHg 91%
    18:00 -16°C° 0 mm 2 mps 682 mmHg 91%
    19:00 -16°C° 0 mm 2 mps 682 mmHg 91%
    20:00 -16°C° 0 mm 2 mps 682 mmHg 91%
    21:00 -14°C° 0 mm 1 mps 683 mmHg 91%
    22:00 -14°C° 0 mm 1 mps 683 mmHg 92%
    23:00 -14°C° 0 mm 1 mps 683 mmHg 92%
    Show more